EW7347 Weather Reports


time (UTC)temp
F
wind
direction
speed
knots
gust
knots
rain 1hr
in
rain 24hr
in
rain mn
in
humidity
%
barometer
mb
20260506031914 45 328 0.0 1.7 0.00 0.00 0.00 79 1012.9
20260506031355 45 263 0.0 0.9 0.00 0.00 0.00 79 1012.8
20260506030849 45 301 0.0 0.9 0.00 0.00 0.00 79 1012.9
20260506030341 45 327 0.0 2.6 0.00 0.00 0.00 78 1012.9
20260506025824 46 313 0.0 2.6 0.00 0.00 0.00 78 1012.9
20260506025333 46 88 0.0 0.0 0.00 0.00 0.00 77 1012.8
20260506024843 46 275 0.0 1.7 0.00 0.00 0.00 77 1012.8
20260506024340 46 46 0.0 0.0 0.00 0.00 0.00 77 1012.8
20260506023829 46 298 0.0 0.9 0.00 0.00 0.00 77 1012.9
20260506023311 46 50 0.0 2.6 0.00 0.00 0.00 76 1012.9
20260506022754 46 199 0.0 0.9 0.00 0.00 0.00 76 1012.9
20260506021634 46 57 0.0 0.0 0.00 0.00 0.00 76 1012.8
20260506021144 46 100 0.0 0.9 0.00 0.00 0.00 76 1012.9
20260506020632 46 315 0.0 0.0 0.00 0.00 0.00 75 1013.0
20260506020122 46 258 0.0 0.0 0.00 0.00 0.00 76 1013.0
20260506015624 46 74 0.0 0.0 0.00 0.00 0.00 75 1013.0
20260506015114 46 257 0.0 0.0 0.00 0.00 0.00 75 1013.0
20260506014612 46 285 0.0 0.0 0.00 0.00 0.00 75 1013.0
20260506014118 46 69 0.0 0.0 0.00 0.00 0.00 74 1013.0
20260506013003 46 288 0.0 0.9 0.00 0.00 0.00 74 1013.0
20260506012446 46 327 0.0 4.3 0.00 0.00 0.00 74 1013.0
20260506011945 46 9 0.0 4.3 0.00 0.00 0.00 74 1013.1
20260506011438 47 9 0.0 1.7 0.00 0.00 0.00 74 1013.2
20260506005652 47 74 0.0 1.7 0.00 0.00 0.00 73 1013.3
20260506005202 47 17 0.0 0.0 0.00 0.00 0.00 73 1013.2
20260506004023 47 292 0.0 0.0 0.00 0.00 0.00 74 1013.2
20260506002913 48 269 0.0 0.0 0.00 0.00 0.00 75 1013.2
20260506002419 48 32 0.0 0.0 0.00 0.00 0.00 75 1013.1
20260506001906 48 306 0.0 2.6 0.00 0.00 0.00 75 1013.1
20260506000738 48 290 0.0 0.0 0.00 0.00 0.00 75 1013.1
20260506000231 48 90 0.0 0.0 0.00 0.00 0.00 74 1013.1
20260505235044 48 325 0.0 0.9 0.00 0.00 0.00 74 1013.1
20260505234546 48 340 0.0 1.7 0.00 0.00 0.00 75 1013.1
20260505234035 48 78 0.0 0.9 0.00 0.00 0.00 77 1013.2
20260505233536 49 336 0.0 0.0 0.00 0.00 0.00 78 1013.1
20260505232400 49 79 0.0 0.0 0.00 0.00 0.00 78 1013.2
20260505231240 49 14 0.0 0.0 0.00 0.00 0.00 77 1013.2
20260505230116 49 312 0.0 0.0 0.00 0.00 0.00 77 1013.3
20260505225618 49 313 0.0 0.0 0.00 0.00 0.00 76 1013.2
20260505225124 49 18 0.0 1.7 0.00 0.00 0.00 76 1013.3
20260505224609 49 169 0.0 0.0 0.00 0.00 0.00 75 1013.3
20260505224116 49 98 0.0 0.0 0.00 0.00 0.00 75 1013.3
20260505223557 49 57 0.0 0.0 0.00 0.00 0.00 74 1013.3
20260505223057 49 269 0.0 0.0 0.00 0.00 0.00 74 1013.3
20260505222557 49 303 0.0 0.0 0.00 0.00 0.00 74 1013.3
20260505222042 49 88 0.0 0.9 0.00 0.00 0.00 73 1013.2
20260505221549 50 98 0.0 0.0 0.00 0.00 0.00 73 1013.2
20260505221032 50 322 0.0 0.9 0.00 0.00 0.00 73 1013.2
20260505220528 50 49 0.0 0.9 0.00 0.00 0.00 73 1013.2
20260505215402 50 119 0.0 0.0 0.00 0.00 0.00 72 1013.1
20260505214843 50 80 0.0 4.3 0.00 0.00 0.00 72 1013.1
20260505214326 50 267 0.0 4.3 0.00 0.00 0.00 74 1013.1
20260505213807 50 294 0.0 0.0 0.00 0.00 0.00 75 1013.2
20260505213306 51 138 0.0 0.9 0.00 0.00 0.00 74 1013.2
20260505212805 51 5 0.0 0.9 0.00 0.00 0.00 74 1013.1
20260505212313 51 167 0.0 0.0 0.00 0.00 0.00 75 1013.0
20260505211800 51 275 0.0 1.7 0.00 0.00 0.00 75 1013.0
20260505211309 51 119 0.0 0.0 0.00 0.00 0.00 75 1013.0
20260505210803 51 174 0.0 0.0 0.00 0.00 0.00 75 1012.9
20260505210245 51 284 0.0 1.7 0.00 0.00 0.00 75 1013.0
20260505205730 51 274 0.0 1.7 0.00 0.00 0.00 74 1012.8
20260505205238 51 308 0.0 1.7 0.00 0.00 0.00 74 1012.8
20260505204743 52 62 0.0 0.0 0.00 0.00 0.00 74 1012.8
20260505204240 52 317 0.0 2.6 0.00 0.00 0.00 74 1012.8
20260505203733 52 172 0.0 0.0 0.00 0.00 0.00 73 1012.8
20260505202554 52 178 0.0 4.3 0.00 0.00 0.00 72 1012.7
20260505202048 52 280 0.0 4.3 0.00 0.00 0.00 72 1012.6
20260505201555 52 96 0.0 0.0 0.00 0.00 0.00 72 1012.7
20260505201045 52 59 0.0 1.7 0.00 0.00 0.00 72 1012.6
20260505200542 52 126 0.0 5.2 0.00 0.00 0.00 72 1012.5
20260505200036 53 306 0.0 5.2 0.00 0.00 0.00 71 1012.5
20260505195528 53 259 0.0 5.2 0.00 0.00 0.00 71 1012.4
20260505195032 53 312 0.0 5.2 0.00 0.00 0.00 72 1012.3
20260505194537 54 219 0.0 3.5 0.00 0.00 0.00 73 1012.2
20260505193404 54 296 0.0 0.9 0.00 0.00 0.00 72 1012.0
20260505192236 55 96 0.0 0.0 0.00 0.00 0.00 69 1011.9
20260505191109 56 44 0.0 0.9 0.00 0.00 0.00 61 1011.7
20260505190603 56 90 0.0 1.7 0.00 0.00 0.00 60 1011.6
20260505190105 56 295 0.0 0.0 0.00 0.00 0.00 60 1011.6
20260505185549 56 278 0.0 0.0 0.00 0.00 0.00 60 1011.6
20260505185051 56 82 0.0 3.5 0.00 0.00 0.00 60 1011.5
20260505184536 57 277 0.0 0.0 0.00 0.00 0.00 59 1011.4
20260505184020 57 281 0.0 0.0 0.00 0.00 0.00 60 1011.3
20260505183525 57 259 0.0 0.0 0.00 0.00 0.00 60 1011.4
20260505183023 57 331 0.0 0.0 0.00 0.00 0.00 60 1011.3
20260505182524 57 34 0.0 0.0 0.00 0.00 0.00 58 1011.4
20260505182026 57 269 0.0 0.0 0.00 0.00 0.00 57 1011.3
20260505180845 58 11 0.0 0.0 0.00 0.00 0.00 56 1011.4
20260505180355 58 319 0.0 2.6 0.00 0.00 0.00 56 1011.3
20260505175857 58 297 0.0 3.5 0.00 0.00 0.00 57 1011.3
20260505175351 58 267 0.0 0.9 0.00 0.00 0.00 57 1011.3
20260505174842 58 288 0.0 1.7 0.00 0.00 0.00 58 1011.4
20260505174331 58 308 0.0 0.0 0.00 0.00 0.00 57 1011.4
20260505173840 58 74 0.0 0.0 0.00 0.00 0.00 57 1011.4
20260505173322 58 303 0.0 0.0 0.00 0.00 0.00 56 1011.4
20260505172809 58 46 0.0 0.9 0.00 0.00 0.00 56 1011.4
20260505172256 58 280 0.0 2.6 0.00 0.00 0.00 56 1011.5
20260505171740 58 35 0.0 0.0 0.00 0.00 0.00 58 1011.5
20260505171221 59 315 0.0 0.0 0.00 0.00 0.00 56 1011.6
20260505170707 59 231 0.0 0.9 0.00 0.00 0.00 56 1011.6
20260505170151 59 33 0.0 1.7 0.00 0.00 0.00 54 1011.6
20260505165024 60 293 0.0 5.2 0.00 0.00 0.00 54 1011.5
20260505164511 61 346 0.0 0.0 0.00 0.00 0.00 53 1011.4
20260505164010 62 251 0.0 4.3 0.00 0.00 0.00 52 1011.4
20260505163502 62 286 0.0 0.9 0.00 0.00 0.00 53 1011.4
20260505163002 61 304 0.0 0.0 0.00 0.00 0.00 55 1011.3
20260505162452 61 42 0.0 5.2 0.00 0.00 0.00 55 1011.3
20260505161935 60 311 0.0 0.0 0.00 0.00 0.00 55 1011.3
20260505161443 60 329 0.0 3.5 0.00 0.00 0.00 56 1011.4
20260505160930 60 294 0.0 3.5 0.00 0.00 0.00 57 1011.4
20260505160437 60 5 0.0 7.0 0.00 0.00 0.00 57 1011.4
20260505152856 60 54 0.0 6.1 0.00 0.00 0.00 57 1011.5
20260505152404 60 11 0.0 0.0 0.00 0.00 0.00 57 1011.6
20260505151848 60 307 0.0 0.0 0.00 0.00 0.00 58 1011.5
20260505151333 59 45 0.0 0.0 0.00 0.00 0.00 57 1011.6
20260505150227 59 321 0.0 0.0 0.00 0.00 0.00 58 1011.7
20260505140650 59 342 0.0 0.9 0.00 0.00 0.00 59 1011.9
20260505140142 59 288 0.0 0.0 0.00 0.00 0.00 60 1011.9
20260505124944 60 269 0.0 2.6 0.00 0.00 0.00 58 1011.8
20260505124440 60 342 0.0 0.9 0.00 0.00 0.00 58 1011.8
20260505123928 60 247 0.0 5.2 0.00 0.00 0.00 59 1011.8
20260505123412 60 355 0.0 0.0 0.00 0.00 0.00 59 1011.8
20260505122855 60 313 0.0 0.0 0.00 0.00 0.00 60 1011.8
20260505122405 61 302 0.0 2.6 0.00 0.00 0.00 58 1011.8
20260505121904 61 277 0.0 2.6 0.00 0.00 0.00 58 1011.8
20260505121359 61 281 0.0 3.5 0.00 0.00 0.00 58 1011.8
20260505120856 61 298 0.0 0.0 0.00 0.00 0.00 59 1011.8
20260505120401 60 208 0.0 2.6 0.00 0.00 0.00 59 1011.9
20260505113949 60 24 0.0 0.0 0.00 0.00 0.00 59 1011.9
20260505112805 60 309 0.0 0.0 0.00 0.00 0.00 58 1012.0
20260505112254 60 271 0.0 0.0 0.00 0.00 0.00 57 1012.0
20260505111743 61 11 0.0 0.0 0.00 0.00 0.00 58 1012.0
20260505111233 61 87 0.0 6.1 0.00 0.00 0.00 57 1012.0
20260505110727 60 29 0.0 0.0 0.00 0.00 0.00 59 1012.0
20260505102111 60 306 0.0 4.3 0.00 0.00 0.00 62 1012.2
20260505101616 59 215 0.0 0.9 0.00 0.00 0.00 63 1012.4
20260505101117 59 306 0.0 4.3 0.00 0.00 0.00 62 1012.3
20260505100612 59 336 0.0 2.6 0.00 0.00 0.00 63 1012.3
20260505100055 59 269 0.0 6.1 0.00 0.00 0.00 64 1012.4
20260505095542 59 305 0.0 4.3 0.00 0.00 0.00 64 1012.3
20260505095045 58 305 0.0 2.6 0.00 0.00 0.00 67 1012.4
20260505094529 57 46 0.0 0.9 0.00 0.00 0.00 67 1012.4
20260505094032 57 306 0.0 6.1 0.00 0.00 0.00 67 1012.4
20260505093518 57 71 0.0 6.1 0.00 0.00 0.00 69 1012.5
20260505093023 56 188 0.0 5.2 0.00 0.00 0.00 68 1012.5
20260505092521 56 296 0.0 5.2 0.00 0.00 0.00 69 1012.6
20260505092001 56 346 0.0 0.9 0.00 0.00 0.00 70 1012.6
20260505091444 55 5 0.0 2.6 0.00 0.00 0.00 69 1012.7
20260505090946 55 290 0.0 0.9 0.00 0.00 0.00 70 1012.7
20260505090454 55 342 0.0 0.0 0.00 0.00 0.00 70 1012.7
20260505085940 55 299 0.0 6.1 0.00 0.00 0.00 71 1012.7
20260505085442 55 321 0.0 0.0 0.00 0.00 0.00 71 1012.7
20260505084932 55 298 0.0 0.0 0.00 0.00 0.00 71 1012.8
20260505084419 55 257 0.0 0.0 0.00 0.00 0.00 72 1012.8
20260505083905 55 273 0.0 0.0 0.00 0.00 0.00 72 1012.8
20260505083405 55 126 0.0 0.0 0.00 0.00 0.00 72 1012.8
20260505082914 55 24 0.0 0.0 0.00 0.00 0.00 71 1012.8
20260505082356 56 295 0.0 0.0 0.00 0.00 0.00 69 1012.8
20260505081901 56 9 0.0 0.0 0.00 0.00 0.00 71 1012.9
20260505080741 56 268 0.0 0.0 0.00 0.00 0.00 72 1013.0
20260505080240 56 325 0.0 0.0 0.00 0.00 0.00 72 1012.8
20260505075722 55 302 0.0 0.9 0.00 0.00 0.00 73 1012.7
20260505075206 54 267 0.0 0.0 0.00 0.00 0.00 77 1012.8
20260505074712 54 5 0.0 2.6 0.00 0.00 0.00 74 1012.8
20260505074203 54 265 0.0 0.9 0.00 0.00 0.00 77 1012.8
20260505073045 53 334 0.0 4.3 0.00 0.00 0.00 80 1012.9
20260505072555 52 243 0.0 3.5 0.00 0.00 0.00 81 1013.0
20260505072100 51 273 0.0 3.5 0.00 0.00 0.00 83 1013.0
20260505070938 49 272 0.0 0.0 0.00 0.00 0.00 84 1013.0
20260505070423 49 304 0.0 1.7 0.00 0.00 0.00 84 1013.0
20260505065910 49 255 0.0 0.9 0.00 0.00 0.00 86 1013.0
20260505065405 49 333 0.0 0.0 0.00 0.00 0.00 87 1013.0
20260505064851 48 267 0.0 0.0 0.00 0.00 0.00 88 1013.1
20260505064342 48 321 0.0 0.0 0.00 0.00 0.00 88 1013.2
20260505063824 48 324 0.0 0.0 0.00 0.00 0.00 88 1013.2
20260505062709 47 323 0.0 1.7 0.00 0.00 0.00 89 1013.2
20260505062209 47 266 0.0 0.0 0.00 0.00 0.00 89 1013.3
20260505061653 46 342 0.0 0.0 0.00 0.00 0.00 90 1013.3
20260505060538 46 342 0.0 0.0 0.00 0.00 0.00 90 1013.3
20260505060025 46 344 0.0 0.0 0.00 0.00 0.00 90 1013.3
20260505055526 45 340 0.0 0.0 0.00 0.00 0.00 91 1013.3
20260505054340 45 284 0.0 0.0 0.00 0.00 0.00 91 1013.2
20260505053838 45 284 0.0 0.0 0.00 0.00 0.00 91 1013.3
20260505053326 44 284 0.0 0.0 0.00 0.00 0.00 91 1013.3
20260505052809 44 284 0.0 0.0 0.00 0.00 0.00 91 1013.2
20260505051702 44 284 0.0 0.0 0.00 0.00 0.00 90 1013.0
20260505051147 44 284 0.0 0.0 0.00 0.00 0.00 90 1013.0
20260505050648 44 284 0.0 0.0 0.00 0.00 0.00 90 1013.0
20260505050131 44 284 0.0 0.0 0.00 0.00 0.00 90 1012.9
20260505041644 45 267 0.0 0.0 0.00 0.00 0.00 90 1012.9
20260505041151 45 265 0.0 0.0 0.00 0.00 0.00 91 1012.8
20260505040655 46 264 0.0 0.0 0.00 0.00 0.00 91 1012.8
20260505040202 46 301 0.0 0.0 0.00 0.00 0.00 91 1012.8
20260505035700 46 302 0.0 0.0 0.00 0.00 0.00 91 1012.7
20260505035202 46 57 0.0 0.0 0.00 0.00 0.00 91 1012.7
20260505034704 46 57 0.0 0.0 0.00 0.00 0.00 91 1012.7
20260505033529 46 57 0.0 0.0 0.00 0.00 0.00 91 1012.7
20260505032359 47 57 0.0 0.0 0.00 0.00 0.00 91 1013.0